x

8411060 - Cutler Farris Wharf, Me (cfwm1) Weather Station

6:30am - Sat 28th May 2016 All times are ADT. -3 hours from GMT.

  • Wind
  • Sea Temp 45°f
  • Air Temp 48°f
  • Sea Pressure 1015.2mb
  •  8411060 - Cutler Farris Wharf, Me
  •  8411060 - Cutler Farris Wharf, Me

More Historic Weather Station data

Upgrade to MSW Pro to gain access to the past 30 days of data for over 8000 Wavebouys and Weather Stations around the globe.

Join Pro

Comparision Forecast

View Surf forecast
   
Sat 05/28 6:30am  -  2 mph 1015.2mb 45f 48f
6:24am 2
mph
1015mb 45f 48f
6:18am  -  3 mph 1014.9mb 45f 48f
6:12am 1 2 mph 1015mb 45f 48f
6:06am 1 2 mph 1015.2mb 45f 48f
6:00am 2 3 mph 1015.2mb 45f 48f
5:54am 3 5 mph 1015.1mb 45f 48f
5:48am  -  2 mph 1014.7mb 45f 48f
5:42am 1 2 mph 1014.9mb 45f 48f
5:36am 2 5 mph 1015.1mb 45f 48f
5:30am 3 5 mph 1015.3mb 45f 48f
5:24am 1 3 mph 1015.3mb 45f 48f
5:18am 3
mph
1015.1mb 45f 48f
5:12am  -  3 mph 1014.9mb 45f 48f
5:06am 2 3 mph 1015.1mb 45f 48f
5:00am 2 3 mph 1015mb 45f 48f
4:54am  -  2 mph 1014.6mb 45f 47f
4:48am 1 3 mph 1014.7mb 45f 47f
4:42am 2
mph
1014.6mb 45f 47f
4:36am  -  3 mph 1014.4mb 45f 47f
4:30am  -  3 mph 1014.3mb 45f 47f
4:24am 2 3 mph 1014.4mb 45f 47f
4:18am  -  2 mph 1014.7mb 45f 47f
4:12am  -  6 mph 1014.6mb 45f 47f
4:06am 3 5 mph 1014.9mb 45f 47f
4:00am 2 3 mph 1015mb 45f 47f
3:54am 1 3 mph 1015.1mb 45f 47f
3:48am 3 5 mph 1015.3mb 45f 47f
3:42am 1 2 mph 1015.1mb 45f 48f
3:36am 1 3 mph 1015.3mb 45f 48f
3:30am 1 5 mph 1015mb 45f 47f
3:24am 2 6 mph 1015.4mb 45f 48f
3:18am  -  mph 1015mb 45f 48f
3:12am  -  mph 1015.6mb 45f 48f
3:06am  -  mph 1015.4mb 45f 48f
3:00am  -  mph 1015.4mb 45f 48f
2:54am  -  mph 1015.8mb 46f 48f
2:48am  -  2 mph 1016mb 46f 48f
2:42am  -  3 mph 1015.9mb 46f 48f
2:36am 1 2 mph 1015.8mb 46f 48f
2:30am  -  2 mph 1015.6mb 46f 48f
2:24am  -  2 mph 1015.8mb 46f 48f
2:18am 1
mph
1015.8mb 46f 48f
2:12am  -  1 mph 1015.8mb 46f 48f
2:06am  -  1 mph 1016.1mb 46f 48f
2:00am  -  2 mph 1016.4mb 46f 48f
1:54am 1 3 mph 1016.6mb 46f 49f
1:48am 2 3 mph 1016.8mb 46f 49f
1:42am 2 5 mph 1016.8mb 46f 49f
1:36am 1 2 mph 1016.6mb 46f 49f
1:30am 2
mph
1016.4mb 46f 49f
1:24am 1 5 mph 1016.6mb 46f 49f
1:18am 1 2 mph 1016.6mb 46f 49f
1:12am 1 5 mph 1016.7mb 46f 49f
1:06am 2
mph
1016.7mb 46f 48f
1:00am 2 5 mph 1016.5mb 46f 48f
12:54am 2 3 mph 1016.8mb 47f 48f
12:48am  -  mph 1016.6mb 48f 48f
12:42am  -  mph 1016.7mb 48f 47f
12:36am  -  mph 1016.5mb 48f 47f
12:30am 1 6 mph 1016.5mb 48f 47f
12:24am 3 5 mph 1016.3mb 48f 47f
12:18am  -  mph 1016.2mb 48f -
12:12am  -  mph 1016.1mb 48f -
12:06am  -  mph 1016mb 48f -
12:00am 6 8 mph 1016mb 48f -
Fri 05/27 11:54pm 6 8 mph 1016.1mb 48f -
11:48pm  -  mph - 48f -
11:42pm  -  mph - 48f -
11:36pm  -  mph - 48f -
11:30pm  -  mph 1016.6mb - -
11:24pm  -  mph 1016.5mb - -
11:18pm  -  mph 1016.6mb - 47f
11:12pm  -  mph 1016.8mb - 47f
11:06pm  -  mph 1017mb - 47f
11:00pm 3 7 mph 1017.2mb - -
10:54pm 5 9 mph 1017.2mb - -
10:48pm  -  mph 1017.1mb 47f -
10:42pm  -  mph 1017.3mb 47f -
10:36pm  -  mph 1017.4mb 47f -
10:30pm 5 8 mph 1017.3mb 47f -
10:24pm 2 9 mph 1017.1mb 47f -
10:18pm  -  mph 1017.1mb 47f -
10:12pm  -  mph 1017mb 47f -
10:06pm  -  mph 1017.1mb 47f -
10:00pm 3 9 mph 1017.2mb - -
9:54pm 2 9 mph 1017.4mb - -
9:48pm  -  mph 1017.4mb 47f -
9:42pm  -  mph 1017.4mb 47f -
9:36pm  -  mph 1017.4mb 47f -
9:30pm 8 14 mph 1017.5mb 47f -
9:24pm 10 14 mph 1017.5mb 47f -
9:18pm  -  mph - 47f 47f
9:12pm  -  mph - 47f 47f
9:06pm  -  mph - 47f 47f
9:00pm  -  mph 1017.9mb 47f -
8:54pm  -  mph 1017.8mb 47f -
8:48pm  -  mph 1017.9mb - -
8:42pm  -  mph 1017.8mb - -
8:36pm  -  mph 1017.9mb - -
8:30pm 7 11 mph 1017.9mb 47f -
8:24pm 8 13 mph 1017.9mb 47f -
8:18pm  -  mph 1018.1mb 47f 48f
8:12pm  -  mph 1018.1mb 47f 48f
8:06pm  -  mph 1018mb 46f 48f
8:00pm 7 10 mph - - -
7:54pm 7 10 mph - - -
7:48pm 8 13 mph - - -
7:42pm 6 11 mph - - -
7:36pm 5 11 mph - - -
7:30pm 3 8 mph 1018.6mb 46f -
7:24pm 2 5 mph 1018.7mb 46f -
7:18pm  -  mph 1018.8mb 46f -
7:12pm  -  mph 1018.8mb 46f -
7:06pm  -  mph 1018.8mb 46f -
7:00pm  -  mph 1018.8mb - -
6:54pm  -  mph 1018.9mb - -
6:48pm  -  mph 1018.9mb 46f -
6:42pm  -  mph 1018.9mb 46f -
6:36pm  -  mph 1019mb 46f -
6:30pm 2 7 mph 1019.1mb 46f 48f
6:24pm 5 7 mph 1019.1mb 46f 49f
6:18pm 2 6 mph 1019.3mb 46f 48f
6:12pm 3 6 mph 1019.3mb 46f 48f
6:06pm 3 8 mph 1019.3mb 46f 48f
6:00pm 5 7 mph 1019.5mb 46f 48f
5:54pm 3 7 mph 1019.7mb 46f 49f
5:48pm 5 8 mph 1019.7mb 46f 49f
5:42pm 5 8 mph 1019.6mb 46f 48f
5:36pm 3 8 mph 1019.7mb 46f 48f
5:30pm 5 10 mph 1019.6mb 46f 48f
5:24pm 6 9 mph 1019.6mb 46f 48f
5:18pm 5 8 mph 1019.6mb 46f 48f
5:12pm 6 9 mph 1019.7mb 46f 48f
5:06pm 6 9 mph 1019.9mb 46f 48f
5:00pm 2 8 mph 1020mb 46f 48f
4:54pm 5 8 mph 1020mb 46f 48f
4:48pm 6 8 mph 1020.3mb 46f 47f
4:42pm 5 8 mph 1020.4mb 46f 48f
4:36pm 5 9 mph 1020.4mb 46f 48f
4:30pm 5 9 mph 1020.5mb 46f 48f
4:24pm 5 8 mph 1020.5mb 46f 47f
4:18pm 3 9 mph 1020.7mb 46f 48f
4:12pm 3 10 mph 1020.7mb 46f 48f
4:06pm 5 10 mph 1020.8mb 46f 48f
4:00pm 6 11 mph 1020.7mb 46f 48f
3:54pm 6 9 mph 1020.7mb 46f 47f
3:48pm 7 9 mph 1020.9mb 46f 47f
3:42pm 6 8 mph 1021mb 46f 47f
3:36pm 5 9 mph 1021.1mb 46f 47f
3:30pm 7 9 mph 1020.9mb 46f 47f
3:24pm 6 9 mph 1021mb 46f 47f
3:18pm 5 9 mph 1021.1mb 46f 47f
3:12pm 2 9 mph 1021.4mb 46f 47f
3:06pm 5 10 mph 1021.5mb 46f 47f
3:00pm 3 8 mph 1021.3mb 46f 47f
2:54pm 3 6 mph 1021.4mb 46f 47f
2:48pm 3 7 mph 1021.8mb 46f 47f
2:42pm 5 7 mph 1021.9mb 46f 47f
2:36pm 3 8 mph 1021.8mb 46f 47f
2:30pm 5 7 mph 1021.8mb 46f 47f
2:24pm 5 7 mph 1021.9mb 46f 48f
2:18pm 3 8 mph 1022mb 46f 48f
2:12pm 6 8 mph 1022.1mb 46f 48f
2:06pm 6 8 mph 1022mb 46f 48f
2:00pm 3 5 mph 1022.3mb 46f 48f
1:54pm 1 5 mph 1022.5mb 47f 48f
1:48pm 3 7 mph 1022.4mb 47f 48f
1:42pm 6 9 mph 1022.3mb 47f 47f
1:36pm 6 9 mph 1022.2mb 47f 47f
1:30pm 5 7 mph 1022.3mb 47f 47f
1:24pm 3 8 mph 1022.2mb 47f 47f
1:18pm 5 7 mph 1022.4mb 47f 47f
1:12pm 3 9 mph 1022.6mb 47f 47f
1:06pm 7 8 mph 1022.6mb 47f 47f
1:00pm 5 8 mph 1022.6mb 47f 47f
12:54pm 6 7 mph 1022.8mb 47f 47f
12:48pm 2 7 mph 1022.8mb 47f 48f
12:42pm 5 6 mph 1022.7mb 47f 47f
12:36pm 5 6 mph 1022.8mb 47f 48f
12:30pm 3 7 mph 1023mb 47f 47f
12:24pm 5 8 mph 1023mb 47f 47f
12:18pm 5 8 mph 1022.9mb 47f 47f
12:12pm 3 9 mph 1022.9mb 47f 47f
12:06pm 6 8 mph 1022.9mb 47f 47f
12:00pm 5 7 mph 1023mb 47f 48f
11:54am 5 7 mph 1023.1mb 47f 48f
11:48am 5 8 mph 1023.1mb 47f 48f
11:42am 6 9 mph 1023.3mb 47f 48f
11:36am 5 8 mph 1023.2mb 47f 47f
11:30am 5 7 mph 1023mb 47f 48f
11:24am 5 8 mph 1023mb 47f 48f
11:18am 6 9 mph 1023mb 47f 48f
11:12am 6 7 mph 1023.1mb 47f 48f
11:06am 5 8 mph 1023.2mb 47f 47f
11:00am 5 8 mph 1023.3mb 47f 47f
10:54am 6 9 mph 1023.1mb 47f 47f
10:48am 2 5 mph 1023.2mb 47f 47f
10:42am 3 7 mph 1023.2mb 47f 47f
10:36am 6 8 mph 1023.1mb 47f 47f
10:30am 6
mph
1023mb 47f 47f
10:24am 3 9 mph 1023mb 47f 47f
10:18am 5 9 mph 1022.8mb 47f 47f
10:12am 6 9 mph 1022.8mb 47f 47f
10:06am 6 7 mph 1022.9mb 47f 47f
10:00am 6 9 mph 1022.9mb 46f 47f
9:54am 6 10 mph 1022.9mb 46f 48f
9:48am 6 8 mph 1023mb 46f 48f
9:42am 5 10 mph 1023mb 46f 48f
9:36am 6 8 mph 1023mb 46f 49f
9:30am 5 8 mph 1023mb 46f 49f
9:24am 6 10 mph 1022.9mb 46f 49f
9:18am 6 11 mph 1023mb 46f 49f
9:12am 5 10 mph 1023mb 46f 49f
9:06am 7 10 mph 1022.9mb 46f 48f
9:00am 8 13 mph 1023.1mb 46f 48f
8:54am 7 10 mph 1023.3mb 46f 47f
8:48am 6 9 mph 1023mb 46f 47f
8:42am 6 9 mph 1023.1mb 46f 47f
8:36am 6 9 mph 1023.2mb 46f 47f
8:30am 6 9 mph 1023.3mb 46f 47f
8:24am 6 11 mph 1023.1mb 46f 47f
8:18am 6 11 mph 1022.9mb 46f 47f
8:12am 7 9 mph 1023.1mb 46f 47f
8:06am 6 9 mph 1023.3mb 46f 47f
8:00am 6 10 mph 1023.2mb 46f 47f
7:54am 6 10 mph 1023.1mb 46f 47f
7:48am 6 9 mph 1023.1mb 46f 47f
7:42am 5 8 mph 1023.4mb 46f 47f
7:36am 3 7 mph 1023.5mb 46f 47f
7:30am 6 10 mph 1023.6mb 45f 47f
7:24am 6 10 mph 1023.6mb 45f 47f
7:18am 5 10 mph 1023.5mb 45f 47f
7:12am 6 11 mph 1023.4mb 45f 47f
7:06am 6 9 mph 1023.6mb 45f 46f
7:00am 5 8 mph 1023.7mb 45f 47f
6:54am 5 7 mph 1023.8mb 45f 46f
6:48am 2 5 mph 1023.8mb 45f 46f
6:42am 3 6 mph 1023.6mb 45f 46f
6:36am 2 6 mph 1023.7mb 45f 46f
6:30am 5 7 mph 1023.7mb 45f 46f
6:24am 5 8 mph 1023.7mb 45f 45f
6:18am 5 10 mph 1023.7mb 45f 45f
6:12am 7 9 mph 1023.6mb 45f 45f
6:06am 6 10 mph 1023.6mb 45f 45f
6:00am 6 9 mph 1023.4mb 45f 45f
5:54am 6 10 mph 1023.4mb 45f 45f
5:48am 6 9 mph 1023.3mb 45f 45f
5:42am 6 10 mph 1023.2mb 45f 45f
5:36am 7 9 mph 1023.3mb 45f 45f
5:30am 5 8 mph 1023.5mb 45f 45f
5:24am 5 9 mph 1023.4mb 45f 45f
5:18am 6 7 mph 1023.6mb 45f 45f
5:12am 5 6 mph 1023.6mb 45f 45f
5:06am 5 7 mph 1023.5mb 45f 45f
5:00am 6 8 mph 1023.5mb 45f 46f
4:54am 3 8 mph 1023.5mb 45f 46f
4:48am 5 8 mph 1023.4mb 45f 46f
4:42am 3 8 mph 1023.2mb 45f 46f
4:36am 6 9 mph 1023.3mb 45f 46f
4:30am 6 9 mph 1023.2mb 45f 46f
4:24am 5 8 mph 1023.1mb 45f 46f
4:18am 5 8 mph 1023.1mb 45f 46f
4:12am 6 7 mph 1023mb 45f 46f
4:06am 6 7 mph 1023.1mb 45f 46f
4:00am 5 7 mph 1023.2mb 45f 47f
3:54am 3 7 mph 1023.4mb 45f 47f
3:48am 6 7 mph 1023.4mb 45f 47f
3:42am 5 6 mph 1023.4mb 45f 47f
3:36am 5 6 mph 1023.3mb 45f 47f
3:30am 3 6 mph 1023.3mb 45f 47f
3:24am 3 7 mph 1023.2mb 45f 47f
3:18am 2 6 mph 1023.2mb 45f 48f
3:12am 5 6 mph 1023.2mb 45f 48f
3:06am 2 5 mph 1023.2mb 45f 48f
3:00am  -  mph 1023.2mb 45f 48f
2:54am  -  mph 1023.2mb 45f 48f
2:48am  -  mph 1023.3mb 46f 49f
2:42am  -  mph 1023.2mb 46f 49f
2:36am  -  mph 1023.2mb 46f 49f
2:30am 3 5 mph 1023.4mb 46f 49f
2:24am 2 3 mph 1023.4mb 46f 49f
2:18am  -  2 mph 1023.4mb 46f 50f
2:12am 2 7 mph 1023.3mb 45f 50f
2:06am 5 6 mph 1023.2mb 45f 50f
2:00am 3 5 mph 1023.2mb 45f 50f
1:54am 1 6 mph 1023.1mb 45f 50f
1:48am 2 5 mph 1023.1mb 45f 50f
1:42am 3 8 mph 1023.1mb 46f 50f
1:36am 5 8 mph 1022.9mb 46f 50f
1:30am 5 8 mph 1023.1mb 46f 50f
1:24am 2 7 mph 1023.1mb 46f 50f
1:18am 6 8 mph 1022.8mb 46f 50f
1:12am 5 8 mph 1022.7mb 46f 50f
1:06am 2 7 mph 1022.6mb 46f 50f
1:00am 5 6 mph 1022.4mb 47f 50f
12:54am 5 7 mph 1022.4mb 47f 50f
12:48am  -  mph 1022.6mb 47f 50f
12:42am  -  mph 1022.7mb 47f 50f
12:36am  -  mph 1022.6mb 47f 51f
12:30am 3 9 mph 1022.5mb 47f 51f
12:24am 5 6 mph 1022.6mb 47f 51f
12:18am  -  mph 1022.4mb 47f -
12:12am  -  mph 1022.3mb 47f -
12:06am  -  mph 1022.3mb 47f -
12:00am  -  mph 1022.1mb 47f -
Thu 05/26 11:54pm  -  mph 1022mb 47f -
11:48pm 6 10 mph 1022.1mb - -
11:42pm 5 9 mph 1022.2mb - -
11:36pm 5 9 mph 1022.2mb - -
11:30pm 3 7 mph - - -
11:24pm 2 6 mph - - -
11:18pm  -  mph 1021.9mb 48f 52f
11:12pm  -  mph 1021.8mb 48f 52f
11:06pm  -  mph 1021.8mb 49f 52f
11:00pm  -  mph 1021.7mb - -
10:54pm  -  mph 1021.7mb - -
10:48pm  -  mph 1021.6mb - -
10:42pm  -  mph 1021.6mb - -
10:36pm  -  mph 1021.6mb - -
10:30pm 5 8 mph 1021.5mb - -
10:24pm 5 6 mph 1021.5mb - -
10:18pm  -  mph 1021.5mb 49f -
10:12pm  -  mph 1021.5mb 49f -
10:06pm  -  mph 1021.3mb 49f -
10:00pm  -  mph 1021.3mb - -
9:54pm  -  mph 1021.4mb - -
9:48pm  -  mph 1021.3mb - -
9:42pm  -  mph 1021.2mb - -
9:36pm  -  mph 1021.1mb - -
9:30pm 3 8 mph 1021.2mb 49f -
9:24pm 2 6 mph 1021.1mb 48f -
9:18pm  -  mph - 48f 54f
9:12pm  -  mph - 48f 55f
9:06pm  -  mph - 48f 55f
9:00pm  -  mph 1020.9mb - -
8:54pm  -  mph 1021mb - -
8:48pm  -  mph - 48f -
8:42pm  -  mph - 48f -
8:36pm  -  mph - 48f -
8:30pm 1 2 mph 1020.8mb 48f -
8:24pm 1 2 mph 1020.7mb 48f -
8:18pm  -  mph - 47f 55f
8:12pm  -  mph - 47f 55f
8:06pm  -  mph - 47f 55f
8:00pm  -  3 mph 1020.3mb - -
7:54pm 2 7 mph 1020.2mb - -
7:48pm 2 6 mph 1020mb - -
7:42pm 3 7 mph 1020mb - -
7:36pm 5 7 mph 1019.9mb - -
7:30pm 3 5 mph 1019.8mb 46f -
7:24pm 3 6 mph 1019.7mb 46f -
7:18pm  -  mph 1019.7mb 46f 60f
7:12pm  -  mph 1019.5mb 46f 60f
7:06pm  -  mph 1019.6mb 46f 59f
7:00pm 3 5 mph 1019.6mb 46f -
6:54pm 1 2 mph 1019.3mb 45f -
6:48pm  -  mph - 46f -
6:42pm  -  mph - 46f -
6:36pm  -  mph - 46f -
6:30pm 3 6 mph 1018.9mb 46f 60f
6:24pm 1 5 mph 1018.8mb 46f 61f
6:18pm 2 5 mph 1018.7mb 46f 61f
6:12pm 2 3 mph 1018.7mb 45f 61f
6:06pm  -  6 mph 1018.7mb 45f 62f
6:00pm 1 5 mph 1018.4mb 45f 63f
5:54pm 2 6 mph 1018.4mb 45f 63f
5:48pm 2 9 mph 1018.4mb 45f 64f
5:42pm 3 5 mph 1018.4mb 45f 64f
5:36pm 2 7 mph 1018.4mb 45f 64f
5:30pm 2 6 mph 1018.4mb 45f 64f
5:24pm 2 5 mph 1018.3mb 45f 63f
5:18pm 3 7 mph 1018.3mb 45f 63f
5:12pm 3 8 mph 1018.3mb 45f 63f
5:06pm 3 6 mph 1018.2mb 45f 64f
5:00pm 3 7 mph 1018.1mb 45f 65f
4:54pm 2 7 mph 1018.1mb 45f 65f
4:48pm 5 6 mph 1018mb 45f 64f
4:42pm 2 6 mph 1017.9mb 45f 64f
4:36pm 2 6 mph 1017.8mb 45f 65f
4:30pm 2 5 mph 1017.7mb 45f 65f
4:24pm 1 8 mph 1017.7mb 45f 65f
4:18pm 5 7 mph 1017.7mb 45f 65f
4:12pm 2 6 mph 1017.7mb 45f 66f
4:06pm 3 5 mph 1017.7mb 45f 67f
4:00pm 1 5 mph 1017.8mb 45f 66f
3:54pm  -  5 mph 1017.7mb 45f 65f
3:48pm 1 10 mph 1017.7mb 45f 62f
3:42pm 5 6 mph 1017.6mb 45f 61f
3:36pm  -  5 mph 1017.5mb 45f 61f
3:30pm 5 7 mph 1017.5mb 45f 60f
3:24pm 2 6 mph 1017.3mb 45f 62f
3:18pm 1 5 mph 1017.4mb 45f 62f
3:12pm 1 8 mph 1017.3mb 46f 64f
3:06pm 2 9 mph 1017.3mb 46f 64f
3:00pm 7 10 mph 1017.1mb 46f 63f
2:54pm 5 13 mph 1017mb 46f 70f
2:48pm  -  mph 1017mb 46f 70f
2:42pm  -  mph 1016.9mb 46f 70f
2:36pm  -  mph 1016.9mb 46f 71f
2:30pm 6 15 mph 1016.9mb 46f 70f
2:24pm 7 14 mph 1016.9mb 46f 69f
2:18pm 7 13 mph 1016.9mb 46f 70f
2:12pm 6 14 mph 1016.8mb 46f 69f
2:06pm 6 14 mph 1016.9mb 45f 69f
2:00pm 9 14 mph 1016.9mb 45f 68f
1:54pm 8 18 mph 1016.7mb 45f 69f
1:48pm 10 14 mph 1016.7mb 45f 69f
1:42pm 8 16 mph 1016.6mb 45f 69f
1:36pm 8 15 mph 1016.6mb 45f 69f
1:30pm 8 14 mph 1016.6mb 45f 69f
1:24pm 6 15 mph 1016.5mb 45f 69f
1:18pm 6 11 mph 1016.5mb 45f 69f
1:12pm 7 13 mph 1016.6mb 45f 69f
1:06pm 7 16 mph 1016.6mb 45f 68f
1:00pm 9 16 mph 1016.6mb 45f 68f
12:54pm 7 14 mph 1016.6mb 45f 68f
12:48pm 5 10 mph 1016.7mb 45f 66f
12:42pm 3 15 mph 1016.7mb 45f 67f
12:36pm 6 11 mph 1016.6mb 45f 67f
12:30pm 6 13 mph 1016.7mb 45f 66f
12:24pm 8 16 mph 1016.7mb 45f 66f
12:18pm 10 17 mph 1016.7mb 45f 65f
12:12pm 3 9 mph 1016.7mb 45f 65f
12:06pm 5 10 mph 1016.7mb 45f 65f
12:00pm 3 13 mph 1016.6mb 45f 64f
11:54am 7 13 mph 1016.6mb 45f 64f
11:48am 8 11 mph 1016.7mb 45f 64f
11:42am 6 11 mph 1016.7mb 45f 64f
11:36am 6 13 mph 1016.7mb 46f 64f
11:30am 7 11 mph 1016.7mb 46f 63f
11:24am 6 14 mph 1016.6mb 46f 63f
11:18am 8 14 mph 1016.6mb 46f 64f
11:12am 7 13 mph 1016.5mb 46f 63f
11:06am 6 13 mph 1016.5mb 46f 64f
11:00am 5 10 mph 1016.4mb 46f 64f
10:54am 6 15 mph 1016.3mb 46f 64f
10:48am 8 14 mph 1016.3mb 46f 63f
10:42am 7 13 mph 1016.1mb 47f 63f
10:36am 5 14 mph 1016.1mb 47f 64f
10:30am 8 14 mph 1016.1mb 47f 63f
10:24am 5 14 mph 1016mb 47f 63f
10:18am 9 15 mph 1016mb 47f 63f
10:12am 8 14 mph 1016mb 47f 64f
10:06am 7 15 mph 1015.8mb 47f 64f
10:00am 6 14 mph 1015.8mb 46f 64f
9:54am 7 15 mph 1015.8mb 47f 63f
9:48am 6 14 mph 1015.8mb 46f 63f
9:42am 10 13 mph 1015.8mb 46f 63f
9:36am 6 15 mph 1015.7mb 46f 63f
9:30am 9 13 mph 1015.8mb 46f 64f
9:24am 8 16 mph 1015.7mb 46f 64f
9:18am 6 10 mph 1015.6mb 46f 64f
9:12am 6 11 mph 1015.5mb 46f 63f
9:06am 8 11 mph 1015.6mb 46f 62f
9:00am 6 14 mph 1015.5mb 46f 62f
8:48am 7 13 mph 1015.3mb 46f 62f
8:42am 6 10 mph 1015.3mb 46f 61f
8:36am 6 10 mph 1015.1mb 46f 61f
8:30am 7 9 mph 1015mb 46f 61f
8:24am 6 9 mph 1015mb 46f 60f
8:18am 3 7 mph 1014.9mb 46f 59f
8:12am 3 6 mph 1014.9mb 46f 58f
8:06am 5 6 mph 1014.9mb 46f 58f
8:00am 3 8 mph 1014.9mb 46f 58f
7:54am 5 7 mph 1014.8mb 46f 57f
7:48am 5 7 mph 1014.8mb 45f 56f
7:42am 7
mph
1014.7mb 45f 56f
7:36am 5 6 mph 1014.7mb 45f 56f
7:30am 2 5 mph 1014.6mb 45f 56f
7:24am 3 5 mph 1014.6mb 45f 56f
7:18am 2 6 mph 1014.4mb 45f 55f
7:12am 2 6 mph 1014.3mb 45f 55f
7:06am 2 6 mph 1014.2mb 45f 55f
7:00am 2 6 mph 1014.1mb 45f 55f
6:54am 3 6 mph 1014.1mb 45f 54f
6:48am 2 5 mph 1014.1mb 45f 54f
6:42am 2 5 mph 1014.1mb 45f 53f
6:36am 3 5 mph 1013.9mb 45f 53f
6:30am 2 3 mph 1013.8mb 45f 52f
6:24am 2 3 mph 1013.7mb 45f 52f
6:18am 2 5 mph 1013.6mb 45f 52f
6:12am 3 5 mph 1013.4mb 45f 52f
6:06am 5 6 mph 1013.3mb 45f 53f
6:00am 5 6 mph 1013.3mb 45f 52f
5:54am 3 5 mph 1013.2mb 45f 52f
5:48am 3 5 mph 1013.2mb 45f 53f
5:42am 3 5 mph 1013.2mb 45f 53f
5:36am 2 6 mph 1013.3mb 45f 53f
5:30am 3 5 mph 1013.3mb 45f 53f
5:24am 3 5 mph 1013.1mb 45f 53f
5:18am 5 6 mph 1012.9mb 45f 53f
5:12am 5 6 mph 1012.8mb 45f 53f
5:06am 5 6 mph 1012.8mb 45f 53f
5:00am 5 6 mph 1012.8mb 45f 52f
4:54am 5 6 mph 1012.7mb 45f 53f
4:48am 5 6 mph 1012.5mb 45f 52f
4:42am 6 8 mph 1012.4mb 45f 53f
4:36am 6 7 mph 1012.4mb 45f 52f
4:30am 5 8 mph 1012.4mb 45f 51f
4:24am 6 10 mph 1012.5mb 45f 51f
4:18am 6 9 mph 1012.4mb 45f 51f
4:06am 6 9 mph 1012.3mb 45f 52f
4:00am 7 10 mph 1012.3mb 45f 52f
3:54am 6 13 mph 1012.3mb 45f 51f
3:48am 8 11 mph 1012.3mb 45f 50f
3:42am 7 10 mph 1012.2mb 45f 50f
3:36am 6 9 mph 1012.1mb 45f 50f
3:30am 6 10 mph 1012.1mb 45f 50f
3:24am 7 9 mph 1012.1mb 45f 50f
3:18am 5 8 mph 1012mb 45f 50f
3:12am 5 8 mph 1012mb 45f 50f
3:06am 3 7 mph 1012mb 45f 51f
3:00am 5 10 mph 1012.1mb 45f 50f
2:54am 6 9 mph 1012mb 45f 50f
2:48am 7 8 mph 1012mb 45f 49f
2:42am 6 7 mph 1012mb 45f 49f
2:36am 3 5 mph 1012mb 45f 49f
2:30am 3 5 mph 1012mb 45f 49f
2:24am 2 3 mph 1012mb 45f 49f
2:18am 1
mph
1012mb 45f 48f
2:12am  -  1 mph 1012.1mb 45f 48f
2:06am  -  1 mph 1012.1mb 45f 48f
2:00am  -  1 mph 1012.2mb 45f 47f
1:54am  -  1 mph 1012.2mb 45f 47f
1:48am  -  2 mph 1012.2mb 45f 48f
1:42am 2
mph
1012.2mb 45f 48f
1:36am  -  3 mph 1012.3mb 45f 48f
1:30am 2 3 mph 1012.4mb 45f 47f
1:24am  -  1 mph 1012.3mb 45f 47f
1:18am  -  1 mph 1012.2mb 45f 47f
1:12am  -  5 mph 1012.3mb 45f 47f
1:06am 3 6 mph 1012.4mb 45f 47f
1:00am 3 6 mph 1012.5mb 45f 47f
12:54am 5 7 mph 1012.5mb 45f 48f
12:48am  -  mph 1012.4mb 45f 48f
12:42am  -  mph 1012.3mb 45f 48f
12:36am  -  mph 1012.2mb 46f 48f
12:30am 5 8 mph 1012.3mb 46f 48f
12:24am 7 9 mph 1012.3mb 46f 48f
12:18am  -  mph 1012.3mb 46f 48f
12:12am  -  mph 1012.2mb 46f 48f
12:06am  -  mph 1012.1mb 46f 48f
12:00am  -  mph - 46f 48f
Wed 05/25 11:54pm  -  mph - 46f 48f
11:48pm  -  mph - 46f 48f
11:42pm  -  mph - 46f 48f
11:36pm  -  mph - 46f 48f
11:30pm 7 9 mph 1012.6mb 46f -
11:24pm 5 6 mph 1012.6mb 46f -
11:18pm  -  mph 1012.6mb 46f 48f
11:12pm  -  mph 1012.7mb 46f 48f
11:06pm  -  mph 1012.7mb 47f 48f
11:00pm 5 10 mph 1012.7mb 47f -
10:54pm 7 11 mph 1012.6mb 48f -
10:48pm  -  mph 1012.6mb 48f -
10:42pm  -  mph 1012.6mb 48f -
10:36pm  -  mph 1012.7mb 48f -
10:30pm 6 10 mph 1012.8mb - -
10:24pm 7 11 mph 1012.7mb - -
10:18pm 7 9 mph 1012.6mb 48f -
10:12pm 6 7 mph 1012.6mb 48f -
10:06pm 3 6 mph 1012.7mb 49f -
10:00pm  -  mph 1012.9mb 49f -
9:54pm  -  mph 1012.9mb 49f -
9:48pm  -  mph 1012.9mb 49f -
9:42pm  -  mph 1012.9mb 49f -
9:36pm  -  mph 1013mb 49f -
9:30pm 3 11 mph 1012.8mb 49f -
9:24pm 7 14 mph 1012.8mb 49f -
9:18pm  -  mph 1012.9mb 49f 48f
9:12pm  -  mph 1012.9mb 49f 48f
9:06pm  -  mph 1013mb 49f 48f
9:00pm 8 11 mph 1012.9mb 49f -
8:54pm 8 10 mph 1013.1mb 49f -
8:48pm 5 10 mph - 49f -
8:42pm 3 7 mph - 49f -
8:36pm 5 9 mph - 48f -
8:30pm 6 11 mph 1013mb 48f -
8:24pm 6 11 mph 1013.2mb 48f -
8:18pm  -  mph 1013.2mb 48f 48f
8:12pm  -  mph 1013.2mb 48f 48f
8:06pm  -  mph 1013.2mb 48f 48f
8:00pm  -  mph 1013.1mb 48f -
7:54pm  -  mph 1013mb 48f -
7:48pm 6 9 mph 1013mb - -
7:42pm 6 10 mph 1013mb - -
7:36pm 6 13 mph 1013.1mb - -
7:30pm 9 11 mph 1013.1mb - -
7:24pm 8 11 mph 1013.1mb - -
7:18pm 8 11 mph 1013.2mb 47f 49f
7:12pm 8 14 mph 1013.1mb 47f 49f
7:06pm 9 13 mph 1013mb 47f 49f
7:00pm 7 14 mph 1013.1mb 47f -
6:54pm 9 14 mph 1012.9mb 47f -
6:48pm  -  mph 1012.9mb - -
6:42pm  -  mph 1013mb - -
6:36pm  -  mph 1013.1mb - -
6:30pm 10 15 mph 1013.1mb 47f 50f
6:24pm 10 15 mph 1013mb 47f 50f
6:18pm 13 15 mph 1013.1mb 47f 50f
6:12pm 11 15 mph 1013.1mb 47f 50f
6:06pm 11 20 mph 1013.3mb 46f 50f
6:00pm 11 16 mph 1013.2mb 46f 52f
5:54pm 9 13 mph 1013.2mb 46f 53f
5:48pm 9 15 mph 1013.2mb 46f 53f
5:42pm 8 15 mph 1013.2mb 46f 54f
5:36pm 9 14 mph 1013.2mb 46f 54f
5:30pm 9 16 mph 1013.1mb 46f 54f
5:24pm 11 15 mph 1013.2mb 45f 53f
5:18pm 8 15 mph 1013.2mb 45f 53f
5:12pm 9 14 mph 1013.2mb 45f 52f
5:06pm 11 18 mph 1013.2mb 45f 52f
5:00pm 9 15 mph 1013.3mb 45f 52f
4:54pm 11 18 mph 1013.3mb 45f 52f
4:48pm 8 15 mph 1013.1mb 45f 53f
4:42pm 8 13 mph 1013mb 45f 53f
4:36pm 9 13 mph 1013.1mb 45f 53f
4:30pm 10 14 mph 1013.3mb 45f 53f
4:24pm 10 13 mph 1013.2mb 45f 53f
4:18pm 7 13 mph 1013.1mb 45f 52f
4:12pm 8 11 mph 1013.2mb 45f 52f
4:06pm 7 11 mph 1013.2mb 45f 52f
4:00pm 9 13 mph 1013.2mb 45f 51f
3:54pm 9 14 mph 1013.3mb 45f 51f
3:48pm 10 13 mph 1013.4mb 45f 51f
3:42pm 9 13 mph 1013.3mb 45f 51f
3:36pm 10 13 mph 1013.3mb 45f 51f
3:30pm 9 13 mph 1013.4mb 45f 51f
3:24pm 9 13 mph 1013.4mb 45f 51f
3:18pm 10 16 mph 1013.5mb 45f 51f
3:12pm 8 15 mph 1013.5mb 45f 51f
3:06pm 10 14 mph 1013.6mb 45f 51f
3:00pm 9 14 mph 1013.6mb 45f 51f
2:54pm 10 14 mph 1013.5mb 45f 51f
2:48pm 9 13 mph 1013.5mb 45f 51f
2:42pm 10 13 mph 1013.5mb 45f 51f
2:36pm 8 11 mph 1013.6mb 45f 51f
2:30pm 6 10 mph 1013.7mb 45f 51f
2:24pm 3 9 mph 1013.8mb 45f 51f
2:18pm 6 7 mph 1014mb 45f 50f
2:12pm 5 13 mph 1014.1mb 45f 50f
2:06pm 7 10 mph 1014.2mb 45f 50f
2:00pm 5 10 mph 1014.1mb 45f 50f
1:54pm 6 10 mph 1014mb 45f 50f
1:48pm 3 8 mph 1014.1mb 45f 50f
1:42pm 3 9 mph 1014mb 45f 50f
1:36pm 5 6 mph 1013.9mb 45f 50f
1:30pm  -  6 mph 1014mb 45f 50f
1:24pm  -  3 mph 1014.2mb 45f 50f
1:18pm 3 8 mph 1014.3mb 45f 49f
1:12pm 1 5 mph 1014.4mb 45f 50f
1:06pm 1 2 mph 1014.4mb 45f 50f
1:00pm  -  2 mph 1014.3mb 46f 51f
12:54pm  -  2 mph 1014.4mb 46f 50f
12:30pm 1 6 mph 1014.2mb 46f 49f
12:18pm 2 3 mph 1014.1mb 46f 50f
12:12pm 2 7 mph 1014.2mb 46f 49f
12:06pm 3 6 mph 1014.1mb 46f 50f
11:54am  -  2 mph 1014.4mb 46f 50f
11:48am 1 3 mph 1014.4mb 46f 49f
11:42am 1 2 mph 1014.5mb 46f 50f
11:36am  -  5 mph 1014.5mb 46f 50f
11:30am 2 5 mph 1014.4mb 46f 50f
11:24am  -  3 mph 1014.4mb 46f 51f
11:18am 2 6 mph 1014.3mb 47f 51f
11:12am 2 3 mph 1014.2mb 47f 51f
10:54am  -  2 mph 1014.5mb 47f 50f
10:48am  -  3 mph 1014.5mb 47f 50f
10:36am  -  3 mph 1014.5mb 47f 50f
10:24am 1 3 mph 1014.5mb 47f 50f
10:18am  -  3 mph 1014.5mb 48f 50f
10:06am 1 2 mph 1014.7mb 48f 50f
10:00am  -  1 mph 1014.8mb 48f 50f
9:54am  -  1 mph 1014.8mb 47f 50f
9:48am  -  1 mph 1014.9mb 47f 50f
9:42am  -  1 mph 1014.9mb 48f 49f
9:36am  -  2 mph 1014.9mb 47f 49f
9:30am  -  2 mph 1014.7mb 47f 49f
9:24am 1 3 mph 1014.7mb 47f 49f
9:18am 2 3 mph 1014.6mb 48f 49f
9:12am 1 5 mph 1014.6mb 47f 49f
9:06am 2 3 mph 1014.5mb 47f 49f
9:00am  -  3 mph 1014.5mb 47f 49f
8:54am 1 7 mph 1014.4mb 47f 49f
8:48am 3 6 mph 1014.1mb 48f 49f
8:42am 1 5 mph 1014.1mb 48f 50f
8:36am  -  5 mph 1014.1mb 48f 50f
8:30am 3 5 mph 1014.1mb 48f 50f
8:24am 2 6 mph 1014.1mb 48f 50f
8:18am 2 6 mph 1013.9mb 48f 50f
8:12am 3 7 mph 1013.9mb 47f 49f
8:06am 2 6 mph 1013.8mb 48f 49f
8:00am 1 6 mph 1013.8mb 47f 49f
7:54am 1 3 mph 1013.7mb 47f 49f
7:48am 1 5 mph 1013.8mb 47f 49f
7:42am 2 8 mph 1013.8mb 47f 49f
7:36am 6 9 mph 1013.6mb 47f 50f
7:30am 5 7 mph 1013.6mb 47f 50f
7:24am 2 5 mph 1013.7mb 47f 50f
7:18am 2 3 mph 1013.6mb 47f 49f
7:12am 1 2 mph 1013.7mb 47f 48f
7:06am  -  1 mph 1013.8mb 47f 48f
7:00am  -  1 mph 1013.8mb 47f 48f
6:54am  -  2 mph 1013.9mb 46f 48f
6:48am  -  2 mph 1014mb 46f 47f
6:42am 1 2 mph 1013.9mb 46f 47f
6:36am 1 2 mph 1013.9mb 46f 47f
6:30am 1 3 mph 1013.9mb 46f 47f
6:24am 1 3 mph 1013.9mb 45f 48f
6:18am 1 6 mph 1014mb 45f 50f
6:12am 2 8 mph 1013.9mb 45f 50f
6:06am 5 6 mph 1013.9mb 45f 50f
6:00am 1 3 mph 1013.8mb 45f 50f
5:54am 1 3 mph 1013.8mb 45f 50f
5:48am  -  1 mph 1013.8mb 45f 50f
5:42am  -  1 mph 1013.8mb 45f 49f
5:36am  -  2 mph 1013.9mb 45f 49f
5:30am  -  1 mph 1013.9mb 45f 49f
5:24am  -  mph 1013.9mb 45f 49f
5:18am  -  mph 1013.7mb 45f 49f
5:12am  -  mph 1013.7mb 45f 49f
5:06am  -  1 mph 1013.6mb 45f 49f
5:00am  -  mph 1013.6mb 45f 49f
4:54am  -  1 mph 1013.6mb 45f 49f
4:48am  -  1 mph 1013.5mb 45f 49f
4:42am  -  1 mph 1013.5mb 45f 49f
4:36am 1 2 mph 1013.6mb 45f 49f
4:30am  -  2 mph 1013.5mb 45f 49f
4:24am 1 2 mph 1013.5mb 45f 49f
4:18am  -  1 mph 1013.6mb 45f 48f
4:12am 1 2 mph 1013.7mb 45f 49f
4:06am 1 2 mph 1013.7mb 45f 49f
4:00am 1 2 mph 1013.9mb 45f 49f
3:54am 2 3 mph 1013.9mb 45f 49f
3:48am 2 5 mph 1013.9mb 45f 49f
3:42am 3 5 mph 1014mb 45f 49f
3:36am 1 2 mph 1013.9mb 45f 49f
3:30am 2
mph
1014mb 45f 49f
3:24am 1 2 mph 1013.9mb 45f 49f
3:18am 1 5 mph 1014mb 45f 49f
3:12am 3
mph
1014mb 45f 49f
3:06am  -  2 mph 1013.9mb 45f 49f
3:00am  -  2 mph 1014mb 45f 49f
2:54am 1 2 mph 1014.1mb 45f 49f
2:48am 1 3 mph 1014.1mb 45f 49f
2:42am 1 5 mph 1014.1mb 45f 49f
2:36am 2
mph
1014.1mb 45f 49f
2:30am  -  2 mph 1014.1mb 45f 48f
2:24am 2
mph
1014.1mb 45f 48f
2:18am  -  2 mph 1014.1mb 45f 48f
2:12am 1 2 mph 1014.1mb 45f 48f
2:06am  -  1 mph 1014.2mb 45f 48f
2:00am  -  3 mph 1014.2mb 45f 48f
1:54am  -  2 mph 1014.3mb 45f 48f
1:48am 2
mph
1014.4mb 45f 48f
1:42am 1 2 mph 1014.2mb 45f 49f
1:36am 1 2 mph 1014.3mb 45f 48f
1:30am  -  1 mph 1014.4mb 45f 48f
1:24am  -  2 mph 1014.3mb 45f 48f
1:18am  -  2 mph 1014.4mb 45f 48f
1:12am  -  1 mph 1014.4mb 45f 48f
1:06am  -  5 mph 1014.5mb 45f 48f
1:00am 2 3 mph 1014.6mb 45f 48f
12:54am 1 3 mph 1014.5mb 45f 48f
12:48am  -  mph 1014.5mb 45f 48f
12:42am  -  mph 1014.5mb 45f 48f
12:36am  -  mph 1014.5mb 45f 48f
12:30am  -  3 mph 1014.6mb 45f 48f
12:24am 1 3 mph 1014.6mb 45f 48f
12:18am  -  mph 1014.8mb 45f 48f
12:12am  -  mph 1014.8mb 45f 48f
12:06am  -  mph 1014.9mb 45f 48f
12:00am  -  2 mph 1015mb 45f 48f
Tue 05/24 11:54pm  -  1 mph 1015.1mb 46f 48f
11:48pm  -  1 mph - - -
11:42pm  -  1 mph - - -
11:36pm  -  1 mph - - -
11:30pm  -  1 mph - 46f -
11:24pm  -  1 mph - 46f -
11:18pm  -  mph 1015.1mb 46f 48f
11:12pm  -  mph 1015.1mb 46f 48f
11:00pm  -  mph 1015.2mb 46f 49f
10:54pm  -  mph 1015.1mb 46f 49f
10:48pm  -  mph 1015.1mb - -
10:42pm  -  mph 1015.2mb - -
10:30pm  -  1 mph 1015.3mb 47f -
10:24pm  -  2 mph 1015.3mb 48f -
10:18pm  -  mph 1015.3mb 48f 49f
10:12pm  -  mph 1015.1mb 48f 49f
10:06pm  -  mph 1015.1mb 48f 49f
10:00pm  -  mph 1015.2mb 49f -
9:54pm  -  mph 1015.3mb 49f -
9:48pm  -  mph 1015.2mb - -
9:42pm  -  mph 1015.1mb - -
9:36pm  -  mph 1015.1mb - -
9:30pm  -  2 mph 1015.1mb - -
9:24pm  -  1 mph 1015mb - -
9:18pm  -  mph 1014.9mb 49f 49f
9:12pm  -  mph 1014.9mb 48f 49f
9:06pm  -  mph 1014.9mb 48f 49f
9:00pm  -  mph 1014.9mb - 50f
8:54pm  -  mph 1014.8mb - 50f
8:48pm  -  1 mph - 48f -
8:42pm  -  2 mph - 48f -
8:36pm 1 3 mph - 48f -
8:30pm  -  mph 1014.8mb 48f -
8:18pm  -  mph 1014.8mb 48f 50f
8:12pm  -  mph 1015mb 48f 51f
8:06pm  -  mph 1015mb 48f 51f
8:00pm  -  mph 1014.9mb 48f 51f
7:54pm  -  mph 1015mb 48f 51f
7:48pm  -  mph 1015mb 48f 51f
7:42pm  -  mph 1015mb 48f 51f
7:36pm  -  mph 1015mb 48f 52f
7:24pm  -  3 mph 1014.9mb 47f -
7:18pm 2 3 mph 1014.8mb 47f -
7:12pm 2 5 mph 1014.7mb 47f -
7:06pm 2 5 mph 1014.7mb 47f -
7:00pm  -  mph - - 53f
6:54pm  -  mph - - 53f
6:48pm  -  mph 1014.6mb 47f 53f
6:42pm  -  mph 1014.6mb 47f 54f
6:36pm  -  mph 1014.5mb 47f 54f
6:30pm 2 3 mph 1014.5mb 47f 54f
6:24pm  -  1 mph 1014.6mb 47f 54f
6:18pm 1 5 mph 1014.6mb 47f 54f
6:12pm 2 5 mph 1014.7mb 47f 54f
6:06pm 2 5 mph 1014.8mb 47f 54f
6:00pm 2 5 mph 1014.8mb 47f 54f
5:54pm 3 6 mph 1014.8mb 47f 54f
5:48pm 3 5 mph 1014.8mb 46f 55f
5:42pm  -  1 mph 1014.8mb 46f 54f
5:36pm  -  2 mph 1014.9mb 46f 52f
5:30pm  -  3 mph 1014.8mb 46f 53f
5:24pm 1 5 mph 1014.9mb 46f 53f
5:18pm 1 3 mph 1014.9mb 46f 52f
5:12pm 1 3 mph 1014.8mb 46f 53f
5:06pm 1 3 mph 1014.8mb 46f 52f
5:00pm  -  5 mph 1014.8mb 46f 54f
4:54pm 3 6 mph 1014.8mb 46f 55f
4:48pm 2 8 mph 1014.7mb 46f 55f
4:42pm 5 7 mph 1014.7mb 46f 55f
4:36pm 5 7 mph 1014.7mb 45f 56f
4:30pm 3 7 mph 1014.7mb 45f 56f
4:24pm 2 8 mph 1014.7mb 45f 57f
4:18pm 2 7 mph 1014.6mb 45f 58f
4:12pm 3 7 mph 1014.6mb 45f 58f
4:06pm 2 6 mph 1014.6mb 45f 58f
4:00pm 3 6 mph 1014.6mb 45f 58f
3:54pm 3 7 mph 1014.6mb 45f 59f
3:48pm 3 6 mph 1014.7mb 45f 58f
3:42pm 2 7 mph 1014.8mb 45f 58f
3:36pm 6 10 mph 1014.8mb 45f 58f
3:30pm 6 10 mph 1014.8mb 45f 58f
3:24pm 6 9 mph 1014.9mb 45f 58f
3:18pm 7 9 mph 1015mb 45f 58f
3:12pm 6 9 mph 1015mb 45f 58f
3:06pm 5 8 mph 1015.1mb 45f 58f
3:00pm 5 7 mph 1015.2mb 45f 58f
2:54pm 6 8 mph 1015.1mb 45f 58f
2:48pm 6 9 mph 1015.2mb 45f 58f
2:42pm 3 8 mph 1015.1mb 45f 58f
2:36pm 5 10 mph 1015mb 45f 58f
2:30pm 6 10 mph 1015.1mb 45f 58f
2:24pm 6 11 mph 1015mb 45f 58f
2:18pm 7 9 mph 1015mb 45f 58f
2:12pm 6 10 mph 1015.2mb 45f 58f
2:06pm 7 10 mph 1015.1mb 45f 59f
2:00pm 6 13 mph 1015mb 45f 58f
1:54pm 6 9 mph 1015mb 45f 58f
1:48pm 7 9 mph 1015.1mb 45f 58f
1:42pm 7 9 mph 1015.3mb 45f 59f
1:36pm 6 9 mph 1015.2mb 45f 60f
1:30pm 6 9 mph 1015.2mb 45f 59f
1:24pm 6 9 mph 1015.2mb 45f 58f
1:18pm 7 10 mph 1015.4mb 45f 58f
1:12pm 6 9 mph 1015.4mb 45f 58f
1:06pm 5 9 mph 1015.3mb 45f 58f
1:00pm 5 8 mph 1015.4mb 45f 58f
12:54pm 6 10 mph 1015.2mb 46f 58f
12:48pm 7 9 mph 1015.2mb 46f 58f
12:42pm 6 9 mph 1015.3mb 46f 58f
12:36pm 5 13 mph 1015.4mb 46f 58f
12:30pm 7 10 mph 1015.3mb 46f 58f
12:24pm 6 11 mph 1015.3mb 46f 59f
12:18pm 6 13 mph 1015.1mb 46f 60f
12:12pm 7 9 mph 1015.2mb 46f 60f
12:06pm 3 8 mph 1015.2mb 46f 60f
12:00pm 5 10 mph 1015.1mb 46f 59f
11:54am 5 9 mph 1015.2mb 46f 58f
11:48am 6 11 mph 1015.3mb 46f 57f
11:42am 7 10 mph 1015.5mb 46f 58f
11:36am 7 9 mph 1015.4mb 46f 58f
11:30am 7
mph
1015.5mb 46f 58f
11:24am 3 9 mph 1015.5mb 46f 57f
11:18am 3 10 mph 1015.5mb 46f 57f
11:12am 5 7 mph 1015.4mb 46f 56f
11:06am 5 7 mph 1015.4mb 46f 55f
11:00am 5 10 mph 1015.4mb 46f 55f
10:54am 8 9 mph 1015.5mb 46f 54f
10:48am 5 7 mph - 46f 54f
10:42am 5 10 mph - 47f 54f
10:36am 6 10 mph - 47f 53f
10:30am 8 11 mph 1015.9mb 47f 53f
10:24am 8 10 mph 1015.9mb 47f 53f